TimeCDT,TemperatureF,Dew PointF,Humidity,Sea Level PressureIn,VisibilityMPH,Wind Direction,Wind SpeedMPH,Gust SpeedMPH,PrecipitationIn,Events,Conditions,WindDirDegrees,DateUTC
12:15 AM,37.4,34.7,90,30.23,10.0,SSW,5.8,-,N/A,,Clear,200,2013-04-25 05:15:00
12:35 AM,37.0,33.8,88,30.24,10.0,SSW,6.9,-,N/A,,Clear,200,2013-04-25 05:35:00
12:55 AM,37.0,33.6,87,30.23,10.0,SSW,5.8,-,N/A,,Clear,210,2013-04-25 05:55:00
1:15 AM,36.5,33.1,87,30.23,10.0,SSW,5.8,-,N/A,,Clear,210,2013-04-25 06:15:00
1:35 AM,36.1,33.1,89,30.23,10.0,SSW,5.8,-,N/A,,Clear,210,2013-04-25 06:35:00
1:55 AM,36.9,32.4,84,30.23,10.0,SW,5.8,-,N/A,,Clear,220,2013-04-25 06:55:00
2:15 AM,37.0,32.2,83,30.22,10.0,SW,5.8,-,N/A,,Clear,220,2013-04-25 07:15:00
2:35 AM,37.8,32.2,80,30.22,10.0,SW,6.9,-,N/A,,Clear,220,2013-04-25 07:35:00
2:55 AM,37.4,32.0,81,30.22,10.0,SW,8.1,-,N/A,,Clear,220,2013-04-25 07:55:00
3:15 AM,39.6,31.6,73,30.22,10.0,SW,6.9,-,N/A,,Clear,220,2013-04-25 08:15:00
3:35 AM,38.7,32.0,77,30.21,10.0,SSW,5.8,-,N/A,,Clear,210,2013-04-25 08:35:00
3:55 AM,37.8,32.2,80,30.21,10.0,SW,8.1,-,N/A,,Clear,220,2013-04-25 08:55:00
4:15 AM,37.8,32.2,80,30.22,10.0,SW,8.1,-,N/A,,Clear,220,2013-04-25 09:15:00
4:35 AM,37.6,32.0,80,30.21,10.0,SW,6.9,-,N/A,,Clear,220,2013-04-25 09:35:00
4:55 AM,38.3,32.0,78,30.22,10.0,SW,8.1,-,N/A,,Clear,220,2013-04-25 09:55:00
5:15 AM,38.7,31.6,76,30.22,10.0,SW,9.2,-,N/A,,Clear,230,2013-04-25 10:15:00
5:35 AM,39.4,31.3,73,30.22,10.0,SW,9.2,-,N/A,,Clear,230,2013-04-25 10:35:00
5:55 AM,39.2,31.5,74,30.23,10.0,WSW,10.4,-,N/A,,Clear,240,2013-04-25 10:55:00
6:15 AM,39.4,31.8,74,30.23,10.0,WSW,11.5,-,N/A,,Clear,250,2013-04-25 11:15:00
6:35 AM,39.2,32.0,75,30.24,10.0,WSW,11.5,-,N/A,,Clear,250,2013-04-25 11:35:00
6:55 AM,39.7,32.2,74,30.25,10.0,WSW,10.4,-,N/A,,Clear,250,2013-04-25 11:55:00
7:15 AM,41.2,32.7,72,30.25,10.0,West,11.5,-,N/A,,Clear,260,2013-04-25 12:15:00
7:35 AM,42.3,33.6,71,30.26,10.0,West,9.2,-,N/A,,Clear,260,2013-04-25 12:35:00
7:55 AM,43.5,33.8,69,30.27,10.0,West,13.8,-,N/A,,Clear,270,2013-04-25 12:55:00
8:15 AM,43.9,35.1,71,30.28,10.0,West,11.5,-,N/A,,Clear,270,2013-04-25 13:15:00
8:35 AM,45.1,36.5,72,30.29,10.0,West,11.5,-,N/A,,Clear,280,2013-04-25 13:35:00
8:55 AM,46.2,35.8,67,30.30,10.0,WNW,11.5,17.3,N/A,,Clear,290,2013-04-25 13:55:00
9:15 AM,46.6,33.8,61,30.31,10.0,NW,10.4,-,N/A,,Clear,310,2013-04-25 14:15:00
9:35 AM,47.3,33.3,58,30.32,10.0,WNW,13.8,-,N/A,,Clear,300,2013-04-25 14:35:00
9:55 AM,48.2,34.0,58,30.32,10.0,NW,12.7,-,N/A,,Clear,320,2013-04-25 14:55:00
10:15 AM,49.1,32.5,53,30.33,10.0,NW,9.2,-,N/A,,Clear,320,2013-04-25 15:15:00
10:55 AM,50.4,30.6,47,30.34,10.0,West,10.4,-,N/A,,Clear,280,2013-04-25 15:55:00
11:55 AM,52.2,31.5,45,30.35,10.0,WNW,13.8,23.0,N/A,,Clear,300,2013-04-25 16:55:00
12:15 PM,52.0,31.3,45,30.35,10.0,WNW,12.7,-,N/A,,Clear,290,2013-04-25 17:15:00
12:35 PM,53.4,33.8,47,30.34,10.0,WNW,8.1,18.4,N/A,,Clear,300,2013-04-25 17:35:00
12:55 PM,54.0,33.4,46,30.34,10.0,WNW,10.4,16.1,N/A,,Clear,300,2013-04-25 17:55:00
1:15 PM,54.1,33.6,46,30.34,10.0,WNW,8.1,-,N/A,,Clear,300,2013-04-25 18:15:00
1:35 PM,54.5,34.5,47,30.33,10.0,West,11.5,16.1,N/A,,Clear,270,2013-04-25 18:35:00
1:55 PM,55.4,34.0,44,30.33,10.0,NW,11.5,23.0,N/A,,Clear,310,2013-04-25 18:55:00
2:15 PM,56.1,35.2,45,30.33,10.0,WNW,16.1,23.0,N/A,,Clear,290,2013-04-25 19:15:00
2:35 PM,56.1,33.8,43,30.33,10.0,West,15.0,23.0,N/A,,Clear,270,2013-04-25 19:35:00
2:55 PM,56.3,33.8,43,30.32,10.0,West,10.4,17.3,N/A,,Scattered Clouds,260,2013-04-25 19:55:00
3:15 PM,56.7,33.6,42,30.32,10.0,West,11.5,-,N/A,,Clear,270,2013-04-25 20:15:00
3:35 PM,56.7,33.4,42,30.31,10.0,West,10.4,-,N/A,,Clear,280,2013-04-25 20:35:00
3:55 PM,57.4,34.0,41,30.31,10.0,WNW,10.4,21.9,N/A,,Clear,290,2013-04-25 20:55:00
4:15 PM,56.8,32.5,40,30.31,10.0,WNW,8.1,-,N/A,,Clear,290,2013-04-25 21:15:00
4:35 PM,57.9,34.3,41,30.30,10.0,West,10.4,-,N/A,,Clear,280,2013-04-25 21:35:00
4:55 PM,57.6,32.7,39,30.30,10.0,SW,4.6,-,N/A,,Clear,220,2013-04-25 21:55:00
5:15 PM,57.9,33.1,39,30.30,10.0,WNW,4.6,-,N/A,,Clear,300,2013-04-25 22:15:00
5:35 PM,57.9,32.7,39,30.30,10.0,WSW,5.8,-,N/A,,Clear,240,2013-04-25 22:35:00
5:55 PM,57.7,33.8,41,30.30,10.0,SSW,6.9,-,N/A,,Clear,210,2013-04-25 22:55:00
6:15 PM,57.4,32.2,39,30.30,10.0,SW,3.5,-,N/A,,Clear,230,2013-04-25 23:15:00
6:35 PM,57.4,33.4,40,30.30,10.0,WNW,6.9,-,N/A,,Clear,290,2013-04-25 23:35:00
6:55 PM,56.8,35.2,44,30.30,10.0,SW,4.6,-,N/A,,Clear,230,2013-04-25 23:55:00
7:15 PM,56.3,37.2,49,30.30,10.0,Calm,Calm,-,N/A,,Clear,0,2013-04-26 00:15:00
7:35 PM,55.0,34.0,45,30.30,10.0,Calm,Calm,-,N/A,,Clear,0,2013-04-26 00:35:00
7:55 PM,52.9,34.3,49,30.30,10.0,Calm,Calm,-,N/A,,Clear,0,2013-04-26 00:55:00
8:15 PM,49.6,36.7,61,30.30,10.0,Calm,Calm,-,N/A,,Clear,0,2013-04-26 01:15:00
8:55 PM,47.8,39.4,72,30.31,10.0,ESE,3.5,-,N/A,,Clear,120,2013-04-26 01:55:00
9:15 PM,47.5,36.9,67,30.31,10.0,ESE,4.6,-,N/A,,Clear,120,2013-04-26 02:15:00
9:35 PM,46.0,38.8,76,30.31,10.0,ESE,4.6,-,N/A,,Clear,120,2013-04-26 02:35:00
9:55 PM,46.0,36.5,69,30.32,10.0,East,4.6,-,N/A,,Clear,100,2013-04-26 02:55:00
10:15 PM,46.0,35.2,66,30.31,10.0,ESE,5.8,-,N/A,,Clear,120,2013-04-26 03:15:00
10:35 PM,46.6,35.4,65,30.32,10.0,SE,5.8,-,N/A,,Clear,130,2013-04-26 03:35:00
10:55 PM,46.0,35.6,67,30.32,10.0,SE,6.9,-,N/A,,Clear,140,2013-04-26 03:55:00
11:15 PM,46.0,35.2,66,30.31,10.0,SE,6.9,-,N/A,,Clear,130,2013-04-26 04:15:00
11:35 PM,45.5,35.6,68,30.31,10.0,SE,6.9,-,N/A,,Clear,130,2013-04-26 04:35:00
11:55 PM,46.0,35.6,67,30.32,10.0,SE,6.9,-,N/A,,Clear,140,2013-04-26 04:55:00